Temp
-7 -7 -7 -7 -7 -7 -6 -6 -6 -6 -7 -7 -7 -6 -5 -5 -5 -5 -4 -4 -5 -5 -5 -5 -5 -6 -6 -6 -5 -6 -6 -5 -5 -4 -5 -5 -4 -3 -4 -3 -3 -4 -4 -4 -4
-7 -7 -7 -7 -7 -7 -6 -6 -6 -7 -7 -7 -7 -6 -6 -5 -5 -4 -4 -4 -5 -5 -5 -5 -5 -6 -6 -6 -6 -6 -5 -5 -5 -5 -5 -5 -5 -4 -4 -4 -3 -4 -4 -4 -4
-7 -7 -7 -7 -7 -7 -6 -7 -7 -7 -7 -7 -7 -6 -6 -5 -5 -5 -4 -5 -5 -5 -5 -6 -6 -6 -6 -5 -5 -5 -5 -5 -6 -6 -5 -5 -5 -4 -4 -4 -4 -4 -4 -4 -4
-7 -7 -7 -7 -7 -7 -7 -7 -7 -7 -7 -7 -7 -6 -6 -5 -5 -5 -5 -5 -5 -5 -5 -6 -5 -5 -5 -5 -5 -5 -5 -5 -5 -5 -5 -5 -4 -4 -4 -4 -3 -4 -4 -4 -3
-7 -7 -7 -7 -7 -6 -7 -7 -6 -6 -6 -6 -6 -6 -6 -5 -5 -5 -5 -5 -5 -5 -6 -6 -5 -5 -5 -5 -6 -5 -5 -5 -4 -4 -4 -4 -4 -4 -4 -3 -4 -4 -4 -4 -4
-6 -6 -7 -7 -7 -6 -6 -7 -7 -6 -6 -6 -6 -6 -6 -5 -5 -5 -5 -5 -5 -5 -5 -5 -5 -5 -5 -5 -5 -6 -6 -5 -4 -4 -4 -4 -4 -4 -4 -4 -5 -4 -4 -4 -4
-6 -6 -7 -7 -6 -6 -6 -7 -6 -6 -6 -6 -6 -6 -6 -5 -5 -5 -5 -5 -5 -5 -5 -5 -5 -5 -6 -5 -5 -5 -5 -5 -4 -4 -4 -4 -3 -4 -5 -5 -5 -5 -4 -3 -3
-6 -6 -6 -6 -6 -6 -6 -6 -6 -6 -6 -6 -6 -6 -6 -5 -5 -5 -5 -5 -5 -5 -5 -5 -5 -5 -5 -5 -5 -4 -4 -4 -4 -4 -3 -4 -4 -5 -5 -6 -6 -5 -5 -4 -3
-6 -6 -6 -6 -6 -6 -6 -6 -6 -6 -6 -6 -6 -6 -6 -5 -5 -5 -5 -5 -5 -4 -5 -5 -5 -5 -6 -5 -5 -4 -4 -3 -3 -3 -3 -4 -4 -5 -5 -6 -6 -6 -5 -5 -4
-6 -6 -6 -6 -6 -6 -6 -6 -6 -6 -6 -6 -6 -6 -6 -5 -5 -5 -4 -4 -5 -5 -4 -4 -5 -5 -5 -5 -5 -4 -4 -3 -3 -3 -3 -3 -3 -4 -4 -4 -5 -6 -5 -4 -5
-5 -5 -6 -6 -6 -6 -6 -6 -6 -6 -6 -6 -6 -6 -6 -5 -5 -5 -5 -4 -5 -5 -6 -5 -5 -5 -5 -5 -5 -4 -4 -3 -3 -3 -3 -4 -3 -3 -4 -4 -4 -5 -5 -4 -4
-5 -5 -5 -5 -5 -6 -6 -6 -6 -6 -5 -5 -5 -5 -5 -6 -5 -5 -4 -4 -5 -5 -5 -5 -5 -4 -5 -4 -4 -4 -3 -3 -2 -2 -2 -3 -4 -4 -4 -4 -4 -4 -4 -4 -4
-5 -5 -5 -5 -5 -5 -6 -6 -6 -5 -5 -5 -5 -5 -5 -5 -5 -5 -4 -5 -5 -5 -5 -5 -4 -4 -4 -4 -4 -4 -3 -3 -2 -2 -2 -2 -2 -2 -3 -3 -4 -5 -4 -4 -4
-5 -5 -4 -5 -5 -5 -5 -5 -6 -5 -5 -5 -5 -5 -5 -5 -4 -5 -4 -5 -5 -5 -5 -4 -4 -4 -4 -4 -4 -4 -4 -3 -3 -2 -2 -2 -2 -2 -3 -3 -3 -4 -5 -4 -4
-4 -4 -4 -4 -5 -5 -5 -5 -5 -6 -6 -5 -5 -5 -5 -5 -5 -5 -5 -5 -5 -5 -5 -4 -4 -4 -3 -4 -4 -5 -4 -3 -3 -3 -2 -3 -2 -4 -4 -3 -3 -4 -4 -4 -5
-4 -4 -4 -4 -4 -4 -5 -5 -5 -5 -5 -5 -5 -4 -5 -5 -5 -5 -5 -5 -5 -4 -4 -4 -4 -4 -4 -4 -5 -4 -4 -4 -3 -2 -3 -3 -2 -2 -3 -3 -4 -4 -4 -4 -5
-4 -4 -4 -4 -4 -4 -4 -4 -4 -5 -4 -4 -4 -5 -5 -5 -5 -5 -5 -5 -4 -4 -3 -4 -4 -5 -5 -4 -4 -4 -5 -4 -3 -2 -3 -2 -2 -2 -2 -3 -3 -3 -4 -4 -4
-5 -4 -4 -4 -4 -4 -4 -4 -4 -4 -4 -4 -4 -4 -4 -5 -4 -5 -5 -4 -4 -4 -4 -4 -4 -4 -4 -4 -5 -5 -4 -4 -3 -3 -3 -2 -2 -3 -3 -3 -3 -3 -3 -3 -4
-5 -5 -4 -5 -5 -4 -4 -4 -4 -4 -4 -4 -4 -4 -4 -4 -4 -4 -4 -4 -4 -4 -4 -3 -4 -4 -4 -4 -4 -4 -4 -4 -3 -3 -3 -3 -3 -3 -4 -4 -4 -4 -4 -4 -5
-5 -5 -5 -5 -4 -5 -4 -4 -4 -4 -4 -4 -4 -4 -4 -4 -4 -4 -4 -4 -4 -4 -4 -3 -3 -4 -4 -4 -3 -4 -3 -4 -3 -3 -3 -3 -3 -3 -4 -5 -4 -5 -5 -6 -6
-5 -6 -6 -6 -5 -4 -4 -5 -5 -4 -4 -4 -4 -4 -4 -4 -4 -4 -4 -4 -4 -4 -3 -3 -3 -4 -4 -3 -4 -4 -4 -4 -3 -4 -4 -3 -3 -4 -5 -5 -5 -6 -6 -5 -6
-6 -6 -6 -6 -6 -5 -5 -5 -5 -5 -5 -5 -5 -4 -4 -4 -4 -4 -4 -4 -3 -4 -4 -4 -3 -4 -3 -4 -4 -4 -4 -4 -4 -4 -5 -4 -4 -5 -5 -5 -6 -7 -6 -6 -7
-7 -7 -7 -7 -6 -6 -6 -6 -6 -5 -5 -5 -5 -5 -5 -5 -5 -5 -4 -4 -4 -4 -4 -5 -4 -5 -5 -5 -4 -4 -5 -5 -5 -5 -5 -6 -5 -6 -6 -7 -7 -7 -7 -7 -8
-7 -7 -8 -7 -7 -7 -7 -7 -6 -6 -7 -6 -6 -6 -6 -5 -5 -5 -5 -5 -5 -5 -6 -6 -5 -5 -5 -6 -6 -6 -6 -6 -6 -6 -6 -6 -6 -7 -7 -8 -8 -8 -8 -8 -8
-7 -8 -8 -8 -8 -8 -8 -8 -7 -7 -7 -7 -7 -7 -7 -6 -6 -6 -7 -6 -6 -6 -6 -6 -6 -6 -6 -6 -6 -7 -7 -7 -7 -7 -7 -6 -7 -7 -8 -8 -8 -8 -8 -8 -8
-8 -8 -8 -8 -8 -8 -8 -8 -8 -8 -8 -8 -8 -9 -8 -7 -8 -8 -8 -8 -8 -7 -7 -7 -7 -7 -7 -7 -7 -6 -7 -6 -6 -6 -6 -7 -7 -8 -8 -8 -8 -8 -8 -8 -8
-8 -8 -8 -8 -8 -9 -9 -8 -8 -9 -8 -8 -8 -8 -8 -8 -9 -9 -9 -9 -8 -9 -8 -9 -9 -9 -8 -9 -9 -7 -6 -7 -7 -8 -8 -7 -8 -8 -8 -8 -8 -8 -8 -8 -8
Height
5889 5890 5892 5893 5894 5895 5896 5898 5899 5900 5901 5902 5903 5905 5907 5912 5916 5920 5923 5926 5928 5929 5931 5932 5934 5935 5937 5939 5938 5938 5939 5937 5938 5936 5935 5934 5933 5932 5934 5934 5935 5935 5935 5935 5935
5888 5890 5891 5892 5893 5894 5896 5897 5898 5899 5901 5902 5903 5904 5907 5912 5916 5920 5923 5925 5928 5930 5931 5932 5934 5935 5938 5940 5940 5941 5940 5940 5940 5937 5937 5937 5935 5934 5937 5937 5937 5937 5937 5937 5937
5888 5889 5890 5891 5892 5893 5895 5896 5898 5899 5900 5901 5902 5904 5907 5912 5916 5919 5922 5925 5928 5930 5931 5933 5934 5937 5939 5941 5942 5943 5943 5942 5941 5940 5940 5939 5938 5938 5939 5940 5940 5940 5939 5938 5938
5887 5888 5889 5890 5891 5892 5894 5895 5896 5898 5899 5901 5902 5903 5907 5911 5916 5918 5921 5924 5927 5929 5931 5933 5935 5937 5940 5943 5944 5946 5946 5944 5943 5943 5943 5942 5942 5943 5943 5944 5943 5941 5941 5941 5940
5885 5887 5888 5889 5890 5891 5893 5894 5895 5897 5898 5900 5902 5903 5906 5911 5914 5917 5920 5924 5927 5929 5930 5933 5936 5939 5943 5944 5946 5947 5948 5946 5946 5947 5946 5946 5946 5946 5946 5946 5945 5943 5942 5943 5942
5884 5885 5886 5888 5889 5890 5891 5893 5894 5895 5897 5899 5901 5903 5906 5910 5913 5917 5920 5924 5926 5928 5932 5934 5937 5941 5944 5945 5948 5949 5948 5948 5948 5949 5950 5950 5950 5950 5949 5947 5944 5944 5944 5945 5944
5882 5884 5885 5886 5888 5889 5890 5891 5892 5894 5896 5897 5900 5902 5905 5909 5912 5916 5920 5923 5925 5928 5931 5934 5937 5942 5944 5945 5948 5949 5949 5949 5949 5950 5952 5952 5953 5951 5951 5949 5947 5946 5946 5946 5946
5881 5882 5883 5885 5886 5887 5889 5890 5891 5893 5895 5896 5899 5901 5904 5907 5911 5916 5919 5923 5925 5928 5931 5935 5938 5942 5944 5946 5947 5948 5951 5951 5951 5951 5952 5954 5954 5953 5953 5952 5950 5948 5948 5948 5948
5879 5880 5881 5883 5885 5886 5887 5888 5890 5892 5894 5895 5898 5900 5903 5906 5910 5914 5917 5922 5925 5927 5932 5935 5939 5942 5944 5946 5948 5949 5950 5952 5953 5953 5954 5954 5954 5954 5954 5953 5952 5951 5949 5949 5948
5877 5878 5880 5881 5883 5884 5886 5887 5888 5890 5893 5894 5897 5900 5902 5905 5909 5912 5916 5920 5925 5927 5931 5936 5939 5940 5943 5946 5948 5950 5951 5952 5954 5955 5955 5955 5955 5954 5954 5954 5952 5951 5950 5950 5949
5875 5876 5877 5879 5880 5882 5884 5885 5888 5890 5890 5893 5895 5897 5899 5904 5907 5911 5916 5919 5925 5928 5930 5935 5938 5940 5943 5945 5947 5950 5952 5952 5953 5955 5955 5955 5955 5955 5955 5955 5953 5951 5950 5950 5949
5873 5874 5875 5876 5878 5879 5881 5882 5884 5887 5888 5890 5893 5896 5898 5903 5907 5910 5914 5919 5923 5927 5930 5933 5935 5939 5942 5944 5947 5949 5952 5953 5954 5955 5956 5956 5956 5955 5955 5954 5953 5951 5950 5949 5949
5872 5872 5873 5874 5875 5876 5877 5879 5881 5883 5886 5889 5892 5895 5898 5902 5905 5910 5913 5917 5920 5925 5929 5932 5936 5939 5940 5943 5946 5949 5951 5953 5954 5955 5955 5955 5955 5955 5955 5954 5953 5952 5951 5950 5950
5870 5871 5872 5872 5874 5874 5875 5877 5879 5882 5885 5888 5890 5893 5896 5899 5903 5907 5912 5916 5919 5924 5928 5932 5935 5937 5939 5942 5944 5947 5948 5949 5952 5954 5954 5954 5954 5954 5953 5952 5951 5951 5951 5950 5950
5867 5868 5870 5871 5872 5872 5874 5875 5877 5881 5883 5886 5888 5891 5895 5899 5903 5906 5909 5913 5918 5922 5927 5931 5931 5935 5937 5940 5943 5944 5944 5945 5946 5947 5949 5950 5950 5950 5949 5949 5950 5950 5950 5949 5949
5863 5865 5867 5868 5870 5871 5872 5873 5876 5879 5880 5883 5885 5889 5893 5896 5899 5902 5905 5910 5914 5918 5923 5926 5928 5933 5936 5938 5940 5941 5941 5942 5942 5943 5945 5945 5948 5946 5946 5945 5945 5944 5943 5944 5943
5857 5860 5862 5864 5867 5868 5870 5871 5874 5875 5879 5881 5883 5887 5890 5894 5897 5900 5903 5908 5911 5917 5922 5925 5928 5932 5932 5935 5937 5937 5938 5940 5942 5941 5942 5941 5944 5944 5943 5942 5942 5942 5941 5940 5940
5850 5853 5856 5859 5862 5864 5867 5869 5871 5872 5874 5878 5881 5883 5887 5890 5893 5897 5901 5904 5908 5912 5918 5920 5925 5927 5930 5932 5933 5932 5933 5935 5936 5937 5938 5939 5941 5940 5939 5939 5938 5937 5936 5936 5935
5842 5844 5849 5853 5855 5859 5863 5865 5867 5869 5872 5875 5878 5881 5884 5886 5889 5892 5896 5901 5904 5909 5913 5915 5918 5921 5922 5923 5927 5926 5927 5930 5931 5932 5933 5936 5936 5936 5935 5934 5933 5933 5932 5932 5931
5832 5835 5839 5844 5848 5852 5856 5860 5861 5865 5868 5871 5874 5877 5880 5883 5887 5888 5891 5896 5899 5903 5905 5909 5911 5913 5913 5915 5918 5919 5922 5925 5924 5926 5926 5928 5929 5928 5928 5928 5927 5928 5927 5925 5923
5823 5826 5829 5834 5838 5843 5849 5854 5855 5858 5862 5866 5869 5873 5876 5879 5882 5885 5889 5892 5894 5897 5899 5903 5906 5910 5909 5911 5913 5914 5916 5917 5918 5920 5920 5921 5923 5921 5920 5919 5919 5918 5917 5918 5916
5814 5818 5821 5824 5830 5835 5840 5844 5847 5850 5855 5858 5863 5867 5870 5873 5876 5880 5883 5886 5889 5892 5895 5897 5899 5903 5905 5904 5906 5907 5908 5910 5911 5913 5913 5914 5916 5914 5912 5911 5911 5911 5909 5908 5907
5806 5810 5813 5816 5820 5825 5830 5834 5839 5843 5847 5852 5855 5858 5862 5865 5871 5874 5877 5880 5883 5885 5887 5890 5893 5896 5897 5899 5899 5900 5902 5903 5905 5905 5905 5906 5907 5906 5905 5903 5901 5900 5900 5900 5899
5800 5802 5806 5809 5812 5816 5820 5825 5830 5835 5838 5842 5848 5851 5854 5858 5861 5866 5870 5874 5877 5879 5881 5883 5885 5889 5892 5892 5893 5893 5894 5895 5896 5896 5897 5897 5898 5898 5898 5896 5895 5893 5892 5891 5890
5793 5795 5798 5801 5804 5808 5811 5816 5819 5824 5828 5832 5836 5842 5846 5849 5852 5857 5861 5865 5868 5870 5873 5875 5877 5879 5881 5883 5885 5885 5886 5887 5887 5889 5889 5892 5890 5891 5890 5889 5888 5885 5882 5880 5878
5786 5789 5791 5794 5796 5799 5802 5807 5810 5813 5818 5823 5827 5831 5832 5838 5844 5850 5853 5856 5859 5863 5865 5867 5868 5870 5871 5872 5874 5876 5878 5879 5880 5880 5881 5882 5882 5882 5882 5881 5879 5876 5872 5869 5867
5780 5782 5784 5787 5789 5792 5795 5799 5801 5804 5807 5812 5816 5819 5824 5829 5833 5839 5842 5846 5849 5853 5856 5857 5859 5860 5860 5862 5861 5862 5867 5868 5869 5870 5871 5871 5874 5873 5872 5871 5870 5866 5861 5858 5855
Wind_Speed
7 8 8 7 6 7 9 7 7 6 4 5 7 13 19 23 22 21 19 18 18 15 13 13 11 10 12 8 9 12 9 9 11 16 17 19 19 20 16 16 15 14 13 13 13
6 7 7 6 6 8 8 7 7 6 6 6 7 13 20 24 23 22 20 19 18 15 14 14 12 9 11 10 12 10 11 11 13 17 17 18 20 20 16 15 18 14 12 12 12
6 5 5 6 7 8 8 8 7 7 7 7 8 14 22 25 25 24 21 20 18 17 14 13 12 10 13 10 12 11 15 21 22 22 20 19 20 18 15 13 14 17 12 11 11
8 7 6 6 8 9 9 9 8 8 7 8 9 15 23 27 27 25 23 22 19 15 12 14 10 13 16 13 14 14 16 22 23 21 19 19 19 18 17 15 13 15 13 10 9
10 10 8 8 9 10 10 10 9 8 8 8 9 15 24 28 28 26 24 23 19 17 16 18 14 17 15 19 18 15 14 18 19 21 21 20 20 21 20 19 21 20 18 15 9
11 10 9 8 10 11 11 10 10 9 9 9 11 14 25 30 29 27 25 25 22 18 18 19 17 16 17 20 20 19 16 15 14 16 18 20 19 19 18 20 22 20 22 20 18
9 9 9 9 10 11 11 10 11 10 9 10 11 13 24 29 30 29 27 27 23 19 20 17 18 20 19 17 18 19 18 14 13 11 14 18 17 20 20 21 22 21 18 15 16
10 10 10 9 10 11 12 11 11 10 10 10 11 14 20 29 30 29 26 27 23 22 22 20 20 20 16 19 16 14 14 13 10 9 10 12 15 18 17 18 18 16 16 14 14
11 11 11 11 11 12 13 13 11 11 11 12 12 14 20 28 29 29 28 27 23 20 24 22 18 18 17 16 12 11 9 9 8 5 7 9 10 14 14 15 15 12 8 11 14
12 12 11 11 11 12 14 14 13 12 12 13 13 16 21 26 29 30 31 29 23 18 20 23 21 20 19 15 13 11 10 8 10 12 10 8 8 10 10 9 9 8 4 5 8
12 13 13 13 12 12 12 13 14 15 13 14 15 17 23 26 31 31 30 27 23 22 21 27 26 20 18 15 15 12 10 9 8 13 11 10 7 9 8 6 5 6 1 2 4
10 11 13 13 13 12 13 15 16 16 16 14 17 19 23 24 27 29 27 22 20 30 24 28 28 23 16 13 13 13 12 8 7 6 6 9 12 10 9 8 1 2 3 4 4
8 7 9 11 11 14 16 18 18 17 16 16 18 19 24 24 28 28 25 22 21 29 26 27 27 21 17 17 16 13 10 7 5 6 5 3 5 5 7 7 3 1 6 8 8
10 8 6 8 11 14 16 18 20 14 11 15 18 20 23 24 27 28 27 26 24 28 25 28 23 21 20 18 16 12 10 9 10 10 9 5 5 5 5 4 3 2 6 8 9
15 12 10 8 9 13 15 16 19 17 16 18 19 21 22 22 24 26 28 29 27 32 28 31 29 26 18 14 12 13 9 12 13 13 12 10 10 8 10 8 6 6 5 8 13
21 18 15 13 11 11 14 16 15 17 17 18 21 22 24 23 26 28 28 27 29 31 30 33 29 23 21 17 16 17 16 18 18 16 14 14 11 13 12 15 17 16 18 18 17
26 24 21 18 16 14 14 16 19 20 16 19 22 23 22 22 25 29 28 26 29 29 30 31 32 27 25 22 22 21 24 24 21 17 16 16 11 12 15 16 18 18 20 19 19
32 31 27 24 22 19 18 17 17 20 21 19 23 26 25 26 28 28 29 29 31 30 28 29 30 32 34 30 29 29 28 24 21 19 19 17 13 13 17 18 19 19 22 21 20
31 37 33 30 28 25 23 21 21 20 20 22 22 26 25 26 27 31 30 28 29 24 27 30 30 29 31 33 32 34 29 26 24 22 21 17 16 18 19 18 20 22 23 21 21
27 35 39 36 34 31 29 25 26 25 23 23 23 24 27 28 26 29 30 29 31 32 31 32 32 32 35 35 32 33 31 28 28 27 25 20 19 22 23 23 23 18 21 20 22
28 29 37 40 39 37 32 29 31 30 29 28 27 25 25 26 28 31 31 32 35 35 35 34 33 31 34 34 31 30 30 30 30 28 27 24 23 25 26 28 28 28 29 21 18
30 26 30 36 41 40 36 35 36 36 34 34 33 31 30 29 28 29 32 35 35 34 34 33 33 29 28 28 29 30 30 29 28 28 28 27 27 28 31 32 31 30 32 30 29
28 30 27 28 33 39 41 40 39 39 38 38 38 37 36 35 33 31 30 33 34 35 34 32 31 25 27 28 27 27 27 26 25 25 27 28 30 28 31 32 33 35 34 33 30
23 28 31 29 27 29 33 39 40 39 41 41 40 41 40 40 38 36 34 33 34 35 35 35 34 31 29 29 30 30 27 28 29 30 28 30 30 30 31 31 33 37 38 38 38
21 23 28 30 30 30 31 31 35 41 43 44 44 42 43 44 43 41 39 37 36 37 38 39 38 36 35 33 32 31 33 34 35 33 35 34 34 33 33 36 37 42 47 49 48
20 22 26 28 30 32 33 32 34 37 40 45 45 45 48 47 45 43 42 40 39 39 38 38 39 38 36 36 36 37 36 38 40 41 40 38 38 36 39 41 44 48 52 52 49
22 22 24 26 29 30 29 27 28 27 32 38 47 49 50 48 49 47 48 46 45 42 41 40 39 39 40 38 41 44 41 41 42 42 43 44 42 43 44 45 47 50 47 48 47
Wind_Direction
223 213 212 210 210 219 212 209 197 190 180 168 170 167 170 169 165 153 151 151 156 145 142 148 147 123 106 89 97 104 103 90 107 111 97 89 86 82 73 77 87 82 86 83 85
197 202 209 216 220 220 218 212 187 183 181 172 175 169 170 169 165 155 158 160 159 151 162 159 154 147 120 120 103 110 97 103 113 104 100 96 92 86 80 71 81 85 84 86 86
196 209 224 235 224 212 211 197 185 185 185 185 177 173 171 169 163 163 164 163 160 162 173 170 161 166 152 127 106 101 100 87 88 107 104 95 91 90 85 73 74 81 81 87 98
220 230 244 249 230 215 204 195 195 194 198 194 182 173 172 170 166 168 167 166 161 167 171 166 159 149 153 131 107 108 107 95 85 89 102 101 99 94 89 81 73 77 78 77 77
232 238 245 249 234 220 212 206 206 208 210 197 187 175 174 172 170 172 170 167 161 163 151 149 137 141 145 120 123 110 102 91 93 97 95 101 100 93 85 83 74 80 78 77 79
230 235 241 243 233 217 212 213 218 218 217 201 190 182 176 176 173 176 174 168 165 161 149 153 157 150 136 124 128 131 116 109 97 96 105 112 106 106 97 85 70 68 76 77 77
230 235 238 231 223 210 211 215 221 222 215 205 191 185 183 179 177 179 178 173 169 165 167 160 162 145 135 140 145 141 133 130 120 102 99 102 102 86 77 72 68 64 60 62 65
227 233 236 225 218 210 215 217 225 223 214 209 192 186 188 183 181 180 180 178 175 178 178 161 159 153 152 157 153 146 141 135 130 124 113 110 106 96 82 65 57 61 64 57 50
227 227 227 227 220 216 219 220 227 220 213 210 194 187 184 186 183 180 182 183 180 188 186 176 172 169 166 175 166 173 161 139 146 167 156 133 132 116 108 91 70 40 46 57 35
228 226 224 223 218 217 224 229 221 213 212 211 198 193 187 186 183 185 183 185 182 193 193 182 182 185 181 184 185 189 192 183 156 164 166 168 164 153 134 109 104 88 356 53 33
232 233 231 231 231 227 225 221 216 209 209 205 197 191 191 188 185 186 185 189 187 187 178 179 187 188 186 196 199 197 207 218 204 175 163 182 200 171 169 155 126 118 143 343 346
234 233 234 229 227 222 215 212 211 206 209 207 197 193 194 187 187 185 191 191 189 184 183 185 193 196 206 206 201 211 216 216 206 181 165 154 175 190 188 189 96 43 308 263 347
235 226 229 223 216 211 210 210 206 209 216 214 201 192 192 190 189 192 193 193 190 181 187 192 195 205 203 210 217 227 232 224 179 190 194 189 182 177 208 197 213 213 298 253 290
240 230 218 216 205 202 206 210 206 202 215 212 204 200 193 197 193 190 191 198 197 184 186 192 203 204 197 206 226 239 256 256 227 225 236 259 284 267 271 252 244 209 250 258 291
240 233 227 219 214 205 206 207 209 216 214 212 208 204 194 195 193 192 193 198 199 198 199 205 211 202 209 211 223 258 277 286 277 272 252 269 293 297 298 287 272 259 257 274 290
240 236 229 224 214 212 210 208 205 202 207 211 207 202 199 197 196 195 201 200 198 201 206 208 215 209 217 217 226 248 264 276 269 273 279 274 276 289 279 289 295 294 296 296 295
241 237 231 227 220 214 216 209 209 212 209 206 201 198 211 210 209 204 201 201 207 209 205 214 220 217 226 242 255 258 254 260 263 266 271 269 275 275 282 287 288 284 283 292 289
235 237 234 228 224 219 216 215 215 216 212 208 203 207 211 214 213 213 215 205 207 208 210 218 225 228 236 246 250 254 255 258 259 253 258 272 281 278 285 286 284 288 291 292 295
240 235 231 231 227 222 220 218 218 221 217 214 215 216 216 218 215 213 212 213 215 215 215 214 216 226 233 237 240 247 254 261 261 256 262 261 273 277 283 282 280 288 295 298 297
247 238 233 227 230 226 221 216 222 221 220 219 220 217 220 223 220 217 215 212 214 218 221 223 228 230 238 242 243 246 254 256 260 265 272 278 281 286 289 287 290 289 289 296 291
247 240 234 231 227 229 225 219 222 221 221 222 226 226 223 226 225 222 220 218 222 226 229 233 238 238 242 247 249 253 252 253 259 266 275 284 287 289 293 295 299 304 307 303 294
240 236 233 231 231 229 226 220 225 226 222 223 226 228 230 227 227 229 228 227 232 235 238 238 239 236 244 246 247 248 252 257 261 268 272 278 282 289 292 293 296 303 307 310 315
239 235 232 231 231 230 229 228 223 228 230 225 227 228 229 234 231 229 232 234 231 232 235 238 240 235 239 247 250 253 257 260 266 267 272 280 286 289 292 295 299 302 306 309 308
242 236 235 233 232 231 229 231 230 227 231 234 229 230 234 235 236 233 233 233 236 235 237 239 242 238 235 245 252 255 254 255 259 266 274 274 279 283 286 291 293 297 301 300 295
244 239 236 232 232 232 232 231 231 229 229 233 236 234 234 235 238 237 234 232 234 237 239 242 245 248 247 243 242 243 246 253 258 261 260 269 271 275 278 287 292 296 299 297 294
250 242 238 232 231 231 234 239 240 235 231 229 232 233 236 236 239 241 241 239 239 239 242 245 249 252 258 259 257 252 250 251 254 259 264 274 279 280 284 288 291 294 292 290 290
250 248 241 238 234 234 234 233 237 236 236 233 232 235 237 238 237 239 241 242 242 242 243 247 253 258 261 264 267 264 263 267 270 272 274 274 276 278 280 282 288 289 286 287 286